Year,Month,Day,Hour,Minute,Value (Times are PST for windgust in km/hr)
2017,06,14,00,00,1.60
2017,06,14,00,01,1.60
2017,06,14,00,02,1.60
2017,06,14,00,03,1.60
2017,06,14,00,04,1.60
2017,06,14,00,05,1.60
2017,06,14,00,07,1.60
2017,06,14,00,14,1.60
2017,06,14,00,16,1.60
2017,06,14,00,17,3.20
2017,06,14,00,18,3.20
2017,06,14,00,19,1.60
2017,06,14,00,33,1.60
2017,06,14,00,37,1.60
2017,06,14,00,47,1.60
2017,06,14,00,49,1.60
2017,06,14,00,50,1.60
2017,06,14,00,51,1.60
2017,06,14,00,52,1.60
2017,06,14,00,54,1.60
2017,06,14,00,55,1.60
2017,06,14,00,56,1.60
2017,06,14,00,58,1.60
2017,06,14,01,22,1.60
2017,06,14,01,23,3.20
2017,06,14,01,24,3.20
2017,06,14,01,25,4.80
2017,06,14,01,26,3.20
2017,06,14,01,27,1.60
2017,06,14,01,28,1.60
2017,06,14,02,01,1.60
2017,06,14,02,02,1.60
2017,06,14,02,05,1.60
2017,06,14,02,06,1.60
2017,06,14,02,07,1.60
2017,06,14,02,08,1.60
2017,06,14,02,15,1.60
2017,06,14,02,16,1.60
2017,06,14,02,17,1.60
2017,06,14,02,21,1.60
2017,06,14,02,22,1.60
2017,06,14,02,38,1.60
2017,06,14,02,39,1.60
2017,06,14,02,40,1.60
2017,06,14,02,45,1.60
2017,06,14,02,46,1.60
2017,06,14,02,47,1.60
2017,06,14,02,48,1.60
2017,06,14,02,49,1.60
2017,06,14,03,12,1.60
2017,06,14,03,13,1.60
2017,06,14,03,14,1.60
2017,06,14,03,17,1.60
2017,06,14,03,18,1.60
2017,06,14,03,19,1.60
2017,06,14,03,25,1.60
2017,06,14,03,26,1.60
2017,06,14,03,34,1.60
2017,06,14,03,35,1.60
2017,06,14,03,37,1.60
2017,06,14,03,38,1.60
2017,06,14,03,39,1.60
2017,06,14,03,40,1.60
2017,06,14,03,56,1.60
2017,06,14,03,57,1.60
2017,06,14,04,01,1.60
2017,06,14,04,02,3.20
2017,06,14,04,03,1.60
2017,06,14,04,04,1.60
2017,06,14,04,05,1.60
2017,06,14,04,06,4.80
2017,06,14,04,07,4.80
2017,06,14,04,08,3.20
2017,06,14,04,09,1.60
2017,06,14,04,10,1.60
2017,06,14,04,11,3.20
2017,06,14,04,12,1.60
2017,06,14,04,13,1.60
2017,06,14,04,15,1.60
2017,06,14,04,26,1.60
2017,06,14,04,36,3.20
2017,06,14,04,37,3.20
2017,06,14,04,38,3.20
2017,06,14,04,39,3.20
2017,06,14,04,40,1.60
2017,06,14,04,41,1.60
2017,06,14,04,42,1.60
2017,06,14,04,46,1.60
2017,06,14,04,47,1.60
2017,06,14,05,02,1.60
2017,06,14,05,03,3.20
2017,06,14,05,04,1.60
2017,06,14,05,13,1.60
2017,06,14,05,14,1.60
2017,06,14,05,15,3.20
2017,06,14,05,16,1.60
2017,06,14,05,17,1.60
2017,06,14,05,36,1.60
2017,06,14,05,37,3.20
2017,06,14,05,38,3.20
2017,06,14,05,39,3.20
2017,06,14,05,40,3.20
2017,06,14,05,41,4.80
2017,06,14,05,42,3.20
2017,06,14,05,43,3.20
2017,06,14,05,44,3.20
2017,06,14,05,45,3.20
2017,06,14,05,46,1.60
2017,06,14,05,47,1.60
2017,06,14,05,48,1.60
2017,06,14,05,55,1.60
2017,06,14,05,56,1.60
2017,06,14,05,57,1.60
2017,06,14,06,02,1.60
2017,06,14,06,03,1.60
2017,06,14,06,04,3.20
2017,06,14,06,05,3.20
2017,06,14,06,06,3.20
2017,06,14,06,07,3.20
2017,06,14,06,08,1.60
2017,06,14,06,19,1.60
2017,06,14,06,20,1.60
2017,06,14,06,21,1.60
2017,06,14,06,22,1.60
2017,06,14,06,23,1.60
2017,06,14,06,25,1.60
2017,06,14,06,29,1.60
2017,06,14,06,30,1.60
2017,06,14,06,31,1.60
2017,06,14,06,32,1.60
2017,06,14,06,33,1.60
2017,06,14,06,34,3.20
2017,06,14,06,35,3.20
2017,06,14,06,36,3.20
2017,06,14,06,37,1.60
2017,06,14,06,38,1.60
2017,06,14,06,42,1.60
2017,06,14,06,43,1.60
2017,06,14,06,45,1.60
2017,06,14,06,46,4.80
2017,06,14,06,47,6.40
2017,06,14,06,48,3.20
2017,06,14,06,49,8.10
2017,06,14,06,50,9.60
2017,06,14,06,51,4.80
2017,06,14,06,52,4.80
2017,06,14,06,53,9.60
2017,06,14,06,54,12.90
2017,06,14,06,55,6.40
2017,06,14,06,56,9.60
2017,06,14,06,57,11.30
2017,06,14,06,58,14.50
2017,06,14,06,59,16.10
2017,06,14,07,00,9.60
2017,06,14,07,01,12.90
2017,06,14,07,02,4.80
2017,06,14,07,03,6.40
2017,06,14,07,04,9.60
2017,06,14,07,05,8.10
2017,06,14,07,06,8.10
2017,06,14,07,07,6.40
2017,06,14,07,08,9.60
2017,06,14,07,09,8.10
2017,06,14,07,10,8.10
2017,06,14,07,11,9.60
2017,06,14,07,12,12.90
2017,06,14,07,13,9.60
2017,06,14,07,14,3.20
2017,06,14,07,15,3.20
2017,06,14,07,16,6.40
2017,06,14,07,17,8.10
2017,06,14,07,18,3.20
2017,06,14,07,19,4.80
2017,06,14,07,20,6.40
2017,06,14,07,21,6.40
2017,06,14,07,22,8.10
2017,06,14,07,23,1.60
2017,06,14,07,24,1.60
2017,06,14,07,26,1.60
2017,06,14,07,27,1.60
2017,06,14,07,29,1.60
2017,06,14,07,30,3.20
2017,06,14,07,31,6.40
2017,06,14,07,32,3.20
2017,06,14,07,33,3.20
2017,06,14,07,34,1.60
2017,06,14,07,35,3.20
2017,06,14,07,36,4.80
2017,06,14,07,37,4.80
2017,06,14,07,38,3.20
2017,06,14,07,39,3.20
2017,06,14,07,40,6.40
2017,06,14,07,41,6.40
2017,06,14,07,42,4.80
2017,06,14,07,43,3.20
2017,06,14,07,44,1.60
2017,06,14,07,45,3.20
2017,06,14,07,46,3.20
2017,06,14,07,47,3.20
2017,06,14,07,48,6.40
2017,06,14,07,49,4.80
2017,06,14,07,50,3.20
2017,06,14,07,51,4.80
2017,06,14,07,52,6.40
2017,06,14,07,53,3.20
2017,06,14,07,54,3.20
2017,06,14,07,55,3.20
2017,06,14,07,56,3.20
2017,06,14,07,57,3.20
2017,06,14,07,58,1.60
2017,06,14,07,59,3.20
2017,06,14,08,00,3.20
2017,06,14,08,01,1.60
2017,06,14,08,03,1.60
2017,06,14,08,06,1.60
2017,06,14,08,07,1.60
2017,06,14,08,08,4.80
2017,06,14,08,09,3.20
2017,06,14,08,10,3.20
2017,06,14,08,11,3.20
2017,06,14,08,12,4.80
2017,06,14,08,13,4.80
2017,06,14,08,14,3.20
2017,06,14,08,15,3.20
2017,06,14,08,16,3.20
2017,06,14,08,17,6.40
2017,06,14,08,18,3.20
2017,06,14,08,19,3.20
2017,06,14,08,20,1.60
2017,06,14,08,21,3.20
2017,06,14,08,22,1.60
2017,06,14,08,23,1.60
2017,06,14,08,24,1.60
2017,06,14,08,25,3.20
2017,06,14,08,26,3.20
2017,06,14,08,27,3.20
2017,06,14,08,28,6.40
2017,06,14,08,29,3.20
2017,06,14,08,30,1.60
2017,06,14,08,31,1.60
2017,06,14,08,32,1.60
2017,06,14,08,33,3.20
2017,06,14,08,34,3.20
2017,06,14,08,35,3.20
2017,06,14,08,36,4.80
2017,06,14,08,37,1.60
2017,06,14,08,38,1.60
2017,06,14,08,39,3.20
2017,06,14,08,40,3.20
2017,06,14,08,41,1.60
2017,06,14,08,42,4.80
2017,06,14,08,43,8.10
2017,06,14,08,44,3.20
2017,06,14,08,45,3.20
2017,06,14,08,46,6.40
2017,06,14,08,47,1.60
2017,06,14,08,48,1.60
2017,06,14,08,49,3.20
2017,06,14,08,50,3.20
2017,06,14,08,51,6.40
2017,06,14,08,52,8.10
2017,06,14,08,53,3.20
2017,06,14,08,54,1.60
2017,06,14,08,55,4.80
2017,06,14,08,56,4.80
2017,06,14,08,57,3.20
2017,06,14,08,58,3.20
2017,06,14,08,59,1.60
2017,06,14,09,00,4.80
2017,06,14,09,01,3.20
2017,06,14,09,02,3.20
2017,06,14,09,03,4.80
2017,06,14,09,04,6.40
2017,06,14,09,05,6.40
2017,06,14,09,06,6.40
2017,06,14,09,07,6.40
2017,06,14,09,08,3.20
2017,06,14,09,09,1.60
2017,06,14,09,10,4.80
2017,06,14,09,11,4.80
2017,06,14,09,12,6.40
2017,06,14,09,13,3.20
2017,06,14,09,14,3.20
2017,06,14,09,15,3.20
2017,06,14,09,16,8.10
2017,06,14,09,17,3.20
2017,06,14,09,18,3.20
2017,06,14,09,19,4.80
2017,06,14,09,20,3.20
2017,06,14,09,21,3.20
2017,06,14,09,22,6.40
2017,06,14,09,23,8.10
2017,06,14,09,24,3.20
2017,06,14,09,25,3.20
2017,06,14,09,26,4.80
2017,06,14,09,27,4.80
2017,06,14,09,28,6.40
2017,06,14,09,29,6.40
2017,06,14,09,30,4.80
2017,06,14,09,31,6.40
2017,06,14,09,32,1.60
2017,06,14,09,33,3.20
2017,06,14,09,34,6.40
2017,06,14,09,35,4.80
2017,06,14,09,36,6.40
2017,06,14,09,37,4.80
2017,06,14,09,38,4.80
2017,06,14,09,39,3.20
2017,06,14,09,40,6.40
2017,06,14,09,41,11.30
2017,06,14,09,42,6.40
2017,06,14,09,43,9.60
2017,06,14,09,44,4.80
2017,06,14,09,45,9.60
2017,06,14,09,46,6.40
2017,06,14,09,47,11.30
2017,06,14,09,48,9.60
2017,06,14,09,49,3.20
2017,06,14,09,50,3.20
2017,06,14,09,51,4.80
2017,06,14,09,52,4.80
2017,06,14,09,53,4.80
2017,06,14,09,54,6.40
2017,06,14,09,55,6.40
2017,06,14,09,56,3.20
2017,06,14,09,57,1.60
2017,06,14,09,58,4.80
2017,06,14,09,59,4.80
2017,06,14,10,00,4.80
2017,06,14,10,01,6.40
2017,06,14,10,02,6.40
2017,06,14,10,03,6.40
2017,06,14,10,04,4.80
2017,06,14,10,05,3.20
2017,06,14,10,06,8.10
2017,06,14,10,07,9.60
2017,06,14,10,08,9.60
2017,06,14,10,09,4.80
2017,06,14,10,10,4.80
2017,06,14,10,11,6.40
2017,06,14,10,12,4.80
2017,06,14,10,13,3.20
2017,06,14,10,14,4.80
2017,06,14,10,15,9.60
2017,06,14,10,16,6.40
2017,06,14,10,17,4.80
2017,06,14,10,18,9.60
2017,06,14,10,19,9.60
2017,06,14,10,20,6.40
2017,06,14,10,21,4.80
2017,06,14,10,22,14.50
2017,06,14,10,23,6.40
2017,06,14,10,24,9.60
2017,06,14,10,25,6.40
2017,06,14,10,26,3.20
2017,06,14,10,27,3.20
2017,06,14,10,28,3.20
2017,06,14,10,29,3.20
2017,06,14,10,30,6.40
2017,06,14,10,31,3.20
2017,06,14,10,32,4.80
2017,06,14,10,33,1.60
2017,06,14,10,34,6.40
2017,06,14,10,35,8.10
2017,06,14,10,36,6.40
2017,06,14,10,37,1.60
2017,06,14,10,38,8.10
2017,06,14,10,39,6.40
2017,06,14,10,40,3.20
2017,06,14,10,41,11.30
2017,06,14,10,42,16.10
2017,06,14,10,43,6.40
2017,06,14,10,44,3.20
2017,06,14,10,45,9.60
2017,06,14,10,46,9.60
2017,06,14,10,47,6.40
2017,06,14,10,48,4.80
2017,06,14,10,49,4.80
2017,06,14,10,50,3.20
2017,06,14,10,51,6.40
2017,06,14,10,52,9.60
2017,06,14,10,53,12.90
2017,06,14,10,54,14.50
2017,06,14,10,55,8.10
2017,06,14,10,56,6.40
2017,06,14,10,57,11.30
2017,06,14,10,58,8.10
2017,06,14,10,59,11.30
2017,06,14,11,00,12.90
2017,06,14,11,01,8.10
2017,06,14,11,02,11.30
2017,06,14,11,03,11.30
2017,06,14,11,04,6.40
2017,06,14,11,05,20.90
2017,06,14,11,06,16.10
2017,06,14,11,07,11.30
2017,06,14,11,08,4.80
2017,06,14,11,09,4.80
2017,06,14,11,10,19.30
2017,06,14,11,11,16.10
2017,06,14,11,12,12.90
2017,06,14,11,13,14.50
2017,06,14,11,14,8.10
2017,06,14,11,15,6.40
2017,06,14,11,16,6.40
2017,06,14,11,17,12.90
2017,06,14,11,18,12.90
2017,06,14,11,19,12.90
2017,06,14,11,20,20.90
2017,06,14,11,21,19.30
2017,06,14,11,22,4.80
2017,06,14,11,23,6.40
2017,06,14,11,24,12.90
2017,06,14,11,25,9.60
2017,06,14,11,26,11.30
2017,06,14,11,27,14.50
2017,06,14,11,28,17.70
2017,06,14,11,29,19.30
2017,06,14,11,30,19.30
2017,06,14,11,31,14.50
2017,06,14,11,32,12.90
2017,06,14,11,33,6.40
2017,06,14,11,34,9.60
2017,06,14,11,35,9.60
2017,06,14,11,36,11.30
2017,06,14,11,37,14.50
2017,06,14,11,38,12.90
2017,06,14,11,39,12.90
2017,06,14,11,40,14.50
2017,06,14,11,41,19.30
2017,06,14,11,42,17.70
2017,06,14,11,43,16.10
2017,06,14,11,44,16.10
2017,06,14,11,45,19.30
2017,06,14,11,46,12.90
2017,06,14,11,47,6.40
2017,06,14,11,48,17.70
2017,06,14,11,49,16.10
2017,06,14,11,50,11.30
2017,06,14,11,51,19.30
2017,06,14,11,52,16.10
2017,06,14,11,53,17.70
2017,06,14,11,54,14.50
2017,06,14,11,55,8.10
2017,06,14,11,56,20.90
2017,06,14,11,57,17.70
2017,06,14,11,58,6.40
2017,06,14,11,59,11.30
2017,06,14,12,00,11.30
2017,06,14,12,01,11.30
2017,06,14,12,02,14.50
2017,06,14,12,03,12.90
2017,06,14,12,04,22.50
2017,06,14,12,05,12.90
2017,06,14,12,06,9.60
2017,06,14,12,07,20.90
2017,06,14,12,08,12.90
2017,06,14,12,09,11.30
2017,06,14,12,10,11.30
2017,06,14,12,11,8.10
2017,06,14,12,12,16.10
2017,06,14,12,13,6.40
2017,06,14,12,14,17.70
2017,06,14,12,15,16.10
2017,06,14,12,16,6.40
2017,06,14,12,17,6.40
2017,06,14,12,18,6.40
2017,06,14,12,19,14.50
2017,06,14,12,20,3.20
2017,06,14,12,21,16.10
2017,06,14,12,22,9.60
2017,06,14,12,23,9.60
2017,06,14,12,24,14.50
2017,06,14,12,25,16.10
2017,06,14,12,26,12.90
2017,06,14,12,27,11.30
2017,06,14,12,28,19.30
2017,06,14,12,29,12.90
2017,06,14,12,30,12.90
2017,06,14,12,31,16.10
2017,06,14,12,32,17.70
2017,06,14,12,33,16.10
2017,06,14,12,34,11.30
2017,06,14,12,35,6.40
2017,06,14,12,36,9.60
2017,06,14,12,37,14.50
2017,06,14,12,38,22.50
2017,06,14,12,39,20.90
2017,06,14,12,40,20.90
2017,06,14,12,41,16.10
2017,06,14,12,42,14.50
2017,06,14,12,43,24.20
2017,06,14,12,44,17.70
2017,06,14,12,45,17.70
2017,06,14,12,46,17.70
2017,06,14,12,47,27.40
2017,06,14,12,48,16.10
2017,06,14,12,49,19.30
2017,06,14,12,50,20.90
2017,06,14,12,51,22.50
2017,06,14,12,52,22.50
2017,06,14,12,53,20.90
2017,06,14,12,54,16.10
2017,06,14,12,55,19.30
2017,06,14,12,56,25.70
2017,06,14,12,57,16.10
2017,06,14,12,58,27.40
2017,06,14,12,59,12.90
2017,06,14,13,00,17.70
2017,06,14,13,01,16.10
2017,06,14,13,02,8.10
2017,06,14,13,03,22.50
2017,06,14,13,04,20.90
2017,06,14,13,05,11.30
2017,06,14,13,06,9.60
2017,06,14,13,07,14.50
2017,06,14,13,08,16.10
2017,06,14,13,09,14.50
2017,06,14,13,10,12.90
2017,06,14,13,11,17.70
2017,06,14,13,12,9.60
2017,06,14,13,13,14.50
2017,06,14,13,14,11.30
2017,06,14,13,15,25.70
2017,06,14,13,16,27.40
2017,06,14,13,17,16.10
2017,06,14,13,18,12.90
2017,06,14,13,19,25.70
2017,06,14,13,20,25.70
2017,06,14,13,21,27.40
2017,06,14,13,22,11.30
2017,06,14,13,23,17.70
2017,06,14,13,24,24.20
2017,06,14,13,25,16.10
2017,06,14,13,26,19.30
2017,06,14,13,27,17.70
2017,06,14,13,28,14.50
2017,06,14,13,29,29.00
2017,06,14,13,30,27.40
2017,06,14,13,31,19.30
2017,06,14,13,32,11.30
2017,06,14,13,33,12.90
2017,06,14,13,34,19.30
2017,06,14,13,35,24.20
2017,06,14,13,36,46.70
2017,06,14,13,37,25.70
2017,06,14,13,38,20.90
2017,06,14,13,39,22.50
2017,06,14,13,40,25.70
2017,06,14,13,41,16.10
2017,06,14,13,42,22.50
2017,06,14,13,43,22.50
2017,06,14,13,44,20.90
2017,06,14,13,45,22.50
2017,06,14,13,46,27.40
2017,06,14,13,47,16.10
2017,06,14,13,48,24.20
2017,06,14,13,49,8.10
2017,06,14,13,50,9.60
2017,06,14,13,51,16.10
2017,06,14,13,52,16.10
2017,06,14,13,53,24.20
2017,06,14,13,54,11.30
2017,06,14,13,55,12.90
2017,06,14,13,56,19.30
2017,06,14,13,57,11.30
2017,06,14,13,58,14.50
2017,06,14,13,59,6.40
2017,06,14,14,00,12.90
2017,06,14,14,01,14.50
2017,06,14,14,02,20.90
2017,06,14,14,03,19.30
2017,06,14,14,04,20.90
2017,06,14,14,05,14.50
2017,06,14,14,06,16.10
2017,06,14,14,07,17.70
2017,06,14,14,08,14.50
2017,06,14,14,09,16.10
2017,06,14,14,10,17.70
2017,06,14,14,11,11.30
2017,06,14,14,12,16.10
2017,06,14,14,13,22.50
2017,06,14,14,14,25.70
2017,06,14,14,15,25.70
2017,06,14,14,16,24.20
2017,06,14,14,17,19.30
2017,06,14,14,18,25.70
2017,06,14,14,19,19.30
2017,06,14,14,20,22.50
2017,06,14,14,21,30.60
2017,06,14,14,22,17.70
2017,06,14,14,23,29.00
2017,06,14,14,24,22.50
2017,06,14,14,25,16.10
2017,06,14,14,26,19.30
2017,06,14,14,27,14.50
2017,06,14,14,28,27.40
2017,06,14,14,29,27.40
2017,06,14,14,30,14.50
2017,06,14,14,31,19.30
2017,06,14,14,32,20.90
2017,06,14,14,33,8.10
2017,06,14,14,34,17.70
2017,06,14,14,35,25.70
2017,06,14,14,36,24.20
2017,06,14,14,37,20.90
2017,06,14,14,38,17.70
2017,06,14,14,39,11.30
2017,06,14,14,40,8.10
2017,06,14,14,41,6.40
2017,06,14,14,42,17.70
2017,06,14,14,43,14.50
2017,06,14,14,44,17.70
2017,06,14,14,45,17.70
2017,06,14,14,46,9.60
2017,06,14,14,47,8.10
2017,06,14,14,48,8.10
2017,06,14,14,49,14.50
2017,06,14,14,50,29.00
2017,06,14,14,51,17.70
2017,06,14,14,52,20.90
2017,06,14,14,53,24.20
2017,06,14,14,54,22.50
2017,06,14,14,55,16.10
2017,06,14,14,56,33.80
2017,06,14,14,57,19.30
2017,06,14,14,58,20.90
2017,06,14,14,59,17.70
2017,06,14,15,00,20.90
2017,06,14,15,01,11.30
2017,06,14,15,02,14.50
2017,06,14,15,03,19.30
2017,06,14,15,04,17.70
2017,06,14,15,05,19.30
2017,06,14,15,06,19.30
2017,06,14,15,07,22.50
2017,06,14,15,08,22.50
2017,06,14,15,09,17.70
2017,06,14,15,10,20.90
2017,06,14,15,11,17.70
2017,06,14,15,12,12.90
2017,06,14,15,13,11.30
2017,06,14,15,14,16.10
2017,06,14,15,15,22.50
2017,06,14,15,16,16.10
2017,06,14,15,17,19.30
2017,06,14,15,18,24.20
2017,06,14,15,19,17.70
2017,06,14,15,20,14.50
2017,06,14,15,21,22.50
2017,06,14,15,22,14.50
2017,06,14,15,23,6.40
2017,06,14,15,24,16.10
2017,06,14,15,25,16.10
2017,06,14,15,26,14.50
2017,06,14,15,27,12.90
2017,06,14,15,28,22.50
2017,06,14,15,29,27.40
2017,06,14,15,30,16.10
2017,06,14,15,31,11.30
2017,06,14,15,32,27.40
2017,06,14,15,33,27.40
2017,06,14,15,34,17.70
2017,06,14,15,35,20.90
2017,06,14,15,36,19.30
2017,06,14,15,37,12.90
2017,06,14,15,38,17.70
2017,06,14,15,39,25.70
2017,06,14,15,40,12.90
2017,06,14,15,41,6.40
2017,06,14,15,42,3.20
2017,06,14,15,43,6.40
2017,06,14,15,44,8.10
2017,06,14,15,45,16.10
2017,06,14,15,46,12.90
2017,06,14,15,47,16.10
2017,06,14,15,48,17.70
2017,06,14,15,49,12.90
2017,06,14,15,50,6.40
2017,06,14,15,51,11.30
2017,06,14,15,52,11.30
2017,06,14,15,53,16.10
2017,06,14,15,54,9.60
2017,06,14,15,55,9.60
2017,06,14,15,56,4.80
2017,06,14,15,57,3.20
2017,06,14,15,58,6.40
2017,06,14,15,59,6.40
2017,06,14,16,00,3.20
2017,06,14,16,01,16.10
2017,06,14,16,02,11.30
2017,06,14,16,03,9.60
2017,06,14,16,04,9.60
2017,06,14,16,05,4.80
2017,06,14,16,06,11.30
2017,06,14,16,07,12.90
2017,06,14,16,08,16.10
2017,06,14,16,09,8.10
2017,06,14,16,10,6.40
2017,06,14,16,11,6.40
2017,06,14,16,12,3.20
2017,06,14,16,14,3.20
2017,06,14,16,15,4.80
2017,06,14,16,16,8.10
2017,06,14,16,17,8.10
2017,06,14,16,18,9.60
2017,06,14,16,19,4.80
2017,06,14,16,20,6.40
2017,06,14,16,21,6.40
2017,06,14,16,22,6.40
2017,06,14,16,23,9.60
2017,06,14,16,24,8.10
2017,06,14,16,25,4.80
2017,06,14,16,26,3.20
2017,06,14,16,27,8.10
2017,06,14,16,28,6.40
2017,06,14,16,29,8.10
2017,06,14,16,30,8.10
2017,06,14,16,31,6.40
2017,06,14,16,32,11.30
2017,06,14,16,33,9.60
2017,06,14,16,34,6.40
2017,06,14,16,35,3.20
2017,06,14,16,36,12.90
2017,06,14,16,37,9.60
2017,06,14,16,38,9.60
2017,06,14,16,39,9.60
2017,06,14,16,40,12.90
2017,06,14,16,41,19.30
2017,06,14,16,42,9.60
2017,06,14,16,43,3.20
2017,06,14,16,44,12.90
2017,06,14,16,45,9.60
2017,06,14,16,46,6.40
2017,06,14,16,47,8.10
2017,06,14,16,48,8.10
2017,06,14,16,49,3.20
2017,06,14,16,50,3.20
2017,06,14,16,51,4.80
2017,06,14,16,52,6.40
2017,06,14,16,53,4.80
2017,06,14,16,54,8.10
2017,06,14,16,55,4.80
2017,06,14,16,56,8.10
2017,06,14,16,57,9.60
2017,06,14,16,58,8.10
2017,06,14,16,59,8.10
2017,06,14,17,00,9.60
2017,06,14,17,01,4.80
2017,06,14,17,02,1.60
2017,06,14,17,03,3.20
2017,06,14,17,04,1.60
2017,06,14,17,05,8.10
2017,06,14,17,06,8.10
2017,06,14,17,07,3.20
2017,06,14,17,08,1.60
2017,06,14,17,09,3.20
2017,06,14,17,10,6.40
2017,06,14,17,11,8.10
2017,06,14,17,12,3.20
2017,06,14,17,13,3.20
2017,06,14,17,14,6.40
2017,06,14,17,15,14.50
2017,06,14,17,16,12.90
2017,06,14,17,17,6.40
2017,06,14,17,18,11.30
2017,06,14,17,19,6.40
2017,06,14,17,20,8.10
2017,06,14,17,21,14.50
2017,06,14,17,22,11.30
2017,06,14,17,23,8.10
2017,06,14,17,24,9.60
2017,06,14,17,25,9.60
2017,06,14,17,26,11.30
2017,06,14,17,27,12.90
2017,06,14,17,28,14.50
2017,06,14,17,29,12.90
2017,06,14,17,30,11.30
2017,06,14,17,31,12.90
2017,06,14,17,32,3.20
2017,06,14,17,33,3.20
2017,06,14,17,34,6.40
2017,06,14,17,35,17.70
2017,06,14,17,36,16.10
2017,06,14,17,37,4.80
2017,06,14,17,38,8.10
2017,06,14,17,39,9.60
2017,06,14,17,40,3.20
2017,06,14,17,41,6.40
2017,06,14,17,42,11.30
2017,06,14,17,43,3.20
2017,06,14,17,44,8.10
2017,06,14,17,45,12.90
2017,06,14,17,46,12.90
2017,06,14,17,47,6.40
2017,06,14,17,48,4.80
2017,06,14,17,49,11.30
2017,06,14,17,50,12.90
2017,06,14,17,51,14.50
2017,06,14,17,52,11.30
2017,06,14,17,53,8.10
2017,06,14,17,54,11.30
2017,06,14,17,55,4.80
2017,06,14,17,56,8.10
2017,06,14,17,57,6.40
2017,06,14,17,58,6.40
2017,06,14,17,59,4.80
2017,06,14,18,00,8.10
2017,06,14,18,01,6.40
2017,06,14,18,02,11.30
2017,06,14,18,03,14.50
2017,06,14,18,04,9.60
2017,06,14,18,05,9.60
2017,06,14,18,06,6.40
2017,06,14,18,07,4.80
2017,06,14,18,08,11.30
2017,06,14,18,09,4.80
2017,06,14,18,10,1.60
2017,06,14,18,11,4.80
2017,06,14,18,12,6.40
2017,06,14,18,13,6.40
2017,06,14,18,14,8.10
2017,06,14,18,15,3.20
2017,06,14,18,16,1.60
2017,06,14,18,17,4.80
2017,06,14,18,18,3.20
2017,06,14,18,19,4.80
2017,06,14,18,20,4.80
2017,06,14,18,21,4.80
2017,06,14,18,22,3.20
2017,06,14,18,23,1.60
2017,06,14,18,30,1.60
2017,06,14,18,32,4.80
2017,06,14,18,33,4.80
2017,06,14,18,34,8.10
2017,06,14,18,35,3.20
2017,06,14,18,37,1.60
2017,06,14,18,38,6.40
2017,06,14,18,39,4.80
2017,06,14,18,40,4.80
2017,06,14,18,41,1.60
2017,06,14,18,42,1.60
2017,06,14,18,43,3.20
2017,06,14,18,44,1.60
2017,06,14,18,46,1.60
2017,06,14,18,47,3.20
2017,06,14,18,48,1.60
2017,06,14,18,49,1.60
2017,06,14,18,51,1.60
2017,06,14,18,52,1.60
2017,06,14,18,54,8.10
2017,06,14,18,55,6.40
2017,06,14,18,56,4.80
2017,06,14,18,57,4.80
2017,06,14,18,58,4.80
2017,06,14,18,59,4.80
2017,06,14,19,00,9.60
2017,06,14,19,01,3.20
2017,06,14,19,02,1.60
2017,06,14,19,03,3.20
2017,06,14,19,04,6.40
2017,06,14,19,05,11.30
2017,06,14,19,06,4.80
2017,06,14,19,07,12.90
2017,06,14,19,08,14.50
2017,06,14,19,09,3.20
2017,06,14,19,10,6.40
2017,06,14,19,11,6.40
2017,06,14,19,12,4.80
2017,06,14,19,13,8.10
2017,06,14,19,14,3.20
2017,06,14,19,15,1.60
2017,06,14,19,16,3.20
2017,06,14,19,17,3.20
2017,06,14,19,18,14.50
2017,06,14,19,19,6.40
2017,06,14,19,20,6.40
2017,06,14,19,21,4.80
2017,06,14,19,22,4.80
2017,06,14,19,23,4.80
2017,06,14,19,24,22.50
2017,06,14,19,25,16.10
2017,06,14,19,26,6.40
2017,06,14,19,27,11.30
2017,06,14,19,28,3.20
2017,06,14,19,29,3.20
2017,06,14,19,30,9.60
2017,06,14,19,31,16.10
2017,06,14,19,32,14.50
2017,06,14,19,33,17.70
2017,06,14,19,34,8.10
2017,06,14,19,35,9.60
2017,06,14,19,36,6.40
2017,06,14,19,37,8.10
2017,06,14,19,38,3.20
2017,06,14,19,39,3.20
2017,06,14,19,40,9.60
2017,06,14,19,41,6.40
2017,06,14,19,42,16.10
2017,06,14,19,43,11.30
2017,06,14,19,44,16.10
2017,06,14,19,45,8.10
2017,06,14,19,46,11.30
2017,06,14,19,47,8.10
2017,06,14,19,48,12.90
2017,06,14,19,49,12.90
2017,06,14,19,50,12.90
2017,06,14,19,51,12.90
2017,06,14,19,52,8.10
2017,06,14,19,53,1.60
2017,06,14,19,54,4.80
2017,06,14,19,55,19.30
2017,06,14,19,56,11.30
2017,06,14,19,57,9.60
2017,06,14,19,58,8.10
2017,06,14,19,59,6.40
2017,06,14,20,00,11.30
2017,06,14,20,01,12.90
2017,06,14,20,02,9.60
2017,06,14,20,03,9.60
2017,06,14,20,04,6.40
2017,06,14,20,05,3.20
2017,06,14,20,06,11.30
2017,06,14,20,07,6.40
2017,06,14,20,08,4.80
2017,06,14,20,09,1.60
2017,06,14,20,10,8.10
2017,06,14,20,11,6.40
2017,06,14,20,12,12.90
2017,06,14,20,13,12.90
2017,06,14,20,14,4.80
2017,06,14,20,15,16.10
2017,06,14,20,16,16.10
2017,06,14,20,17,4.80
2017,06,14,20,18,11.30
2017,06,14,20,19,6.40
2017,06,14,20,20,17.70
2017,06,14,20,21,8.10
2017,06,14,20,22,11.30
2017,06,14,20,23,14.50
2017,06,14,20,24,12.90
2017,06,14,20,25,11.30
2017,06,14,20,26,9.60
2017,06,14,20,27,14.50
2017,06,14,20,28,22.50
2017,06,14,20,29,19.30
2017,06,14,20,30,11.30
2017,06,14,20,31,14.50
2017,06,14,20,32,20.90
2017,06,14,20,33,22.50
2017,06,14,20,34,8.10
2017,06,14,20,35,16.10
2017,06,14,20,36,14.50
2017,06,14,20,37,19.30
2017,06,14,20,38,9.60
2017,06,14,20,39,12.90
2017,06,14,20,40,22.50
2017,06,14,20,41,27.40
2017,06,14,20,42,14.50
2017,06,14,20,43,8.10
2017,06,14,20,44,9.60
2017,06,14,20,45,14.50
2017,06,14,20,46,20.90
2017,06,14,20,47,12.90
2017,06,14,20,48,11.30
2017,06,14,20,49,14.50
2017,06,14,20,50,12.90
2017,06,14,20,51,8.10
2017,06,14,20,52,16.10
2017,06,14,20,53,11.30
2017,06,14,20,54,11.30
2017,06,14,20,55,14.50
2017,06,14,20,56,17.70
2017,06,14,20,57,11.30
2017,06,14,20,58,8.10
2017,06,14,20,59,14.50
2017,06,14,21,00,14.50
2017,06,14,21,01,14.50
2017,06,14,21,02,16.10
2017,06,14,21,03,8.10
2017,06,14,21,04,3.20
2017,06,14,21,05,14.50
2017,06,14,21,06,12.90
2017,06,14,21,07,9.60
2017,06,14,21,08,4.80
2017,06,14,21,09,6.40
2017,06,14,21,10,4.80
2017,06,14,21,11,12.90
2017,06,14,21,12,9.60
2017,06,14,21,13,6.40
2017,06,14,21,14,4.80
2017,06,14,21,15,3.20
2017,06,14,21,16,9.60
2017,06,14,21,17,6.40
2017,06,14,21,18,4.80
2017,06,14,21,19,4.80
2017,06,14,21,20,3.20
2017,06,14,21,21,4.80
2017,06,14,21,22,3.20
2017,06,14,21,23,6.40
2017,06,14,21,24,3.20
2017,06,14,21,25,8.10
2017,06,14,21,26,6.40
2017,06,14,21,27,3.20
2017,06,14,21,28,1.60
2017,06,14,21,29,3.20
2017,06,14,21,30,3.20
2017,06,14,21,31,4.80
2017,06,14,21,32,9.60
2017,06,14,21,33,8.10
2017,06,14,21,34,8.10
2017,06,14,21,35,9.60
2017,06,14,21,36,6.40
2017,06,14,21,37,9.60
2017,06,14,21,38,4.80
2017,06,14,21,39,6.40
2017,06,14,21,40,4.80
2017,06,14,21,41,6.40
2017,06,14,21,42,8.10
2017,06,14,21,43,6.40
2017,06,14,21,44,4.80
2017,06,14,21,45,3.20
2017,06,14,21,46,3.20
2017,06,14,21,47,8.10
2017,06,14,21,48,8.10
2017,06,14,21,49,3.20
2017,06,14,21,50,11.30
2017,06,14,21,51,11.30
2017,06,14,21,52,9.60
2017,06,14,21,53,12.90
2017,06,14,21,54,11.30
2017,06,14,21,55,6.40
2017,06,14,21,56,6.40
2017,06,14,21,57,9.60
2017,06,14,21,58,9.60
2017,06,14,21,59,6.40
2017,06,14,22,00,6.40
2017,06,14,22,01,6.40
2017,06,14,22,02,9.60
2017,06,14,22,03,11.30
2017,06,14,22,04,6.40
2017,06,14,22,05,9.60
2017,06,14,22,06,4.80
2017,06,14,22,07,3.20
2017,06,14,22,08,8.10
2017,06,14,22,09,6.40
2017,06,14,22,10,4.80
2017,06,14,22,11,4.80
2017,06,14,22,12,6.40
2017,06,14,22,13,11.30
2017,06,14,22,14,8.10
2017,06,14,22,15,3.20
2017,06,14,22,16,4.80
2017,06,14,22,17,3.20
2017,06,14,22,18,8.10
2017,06,14,22,19,4.80
2017,06,14,22,20,3.20
2017,06,14,22,21,3.20
2017,06,14,22,22,6.40
2017,06,14,22,23,6.40
2017,06,14,22,24,3.20
2017,06,14,22,25,1.60
2017,06,14,22,26,6.40
2017,06,14,22,27,6.40
2017,06,14,22,28,4.80
2017,06,14,22,29,4.80
2017,06,14,22,30,4.80
2017,06,14,22,31,6.40
2017,06,14,22,32,6.40
2017,06,14,22,33,4.80